Time,TemperatureF,DewpointF,PressureIn,WindDirection,WindDirectionDegrees,WindSpeedMPH,WindSpeedGustMPH,Humidity,HourlyPrecipIn,Conditions,Clouds,dailyrainin,SolarRadiationWatts/m^2,SoftwareType,DateUTC
2013-06-10 00:00:00,74.4,59.6,29.70,WNW,293,6.0,11.0,60,0.00,,,0.00,0.0,WUHU216DAVISVP2,2013-06-10 07:00:00,
2013-06-10 00:01:00,74.2,59.4,29.70,WNW,300,6.0,11.0,60,0.00,,,0.00,0.0,WUHU216DAVISVP2,2013-06-10 07:01:00,
2013-06-10 00:06:00,73.8,59.5,29.70,WNW,302,7.0,11.0,61,0.00,,,0.00,0.0,WUHU216DAVISVP2,2013-06-10 07:06:00,
2013-06-10 00:10:00,73.6,59.3,29.70,WNW,293,6.0,11.0,61,0.00,,,0.00,0.0,WUHU216DAVISVP2,2013-06-10 07:10:00,
2013-06-10 00:11:00,73.5,59.2,29.70,WNW,303,7.0,10.0,61,0.00,,,0.00,0.0,WUHU216DAVISVP2,2013-06-10 07:11:00,
2013-06-10 00:16:00,73.2,59.6,29.70,WNW,300,4.0,10.0,62,0.00,,,0.00,0.0,WUHU216DAVISVP2,2013-06-10 07:16:00,
2013-06-10 00:20:00,73.0,59.2,29.70,WNW,293,5.0,10.0,62,0.00,,,0.00,0.0,WUHU216DAVISVP2,2013-06-10 07:20:00,
2013-06-10 00:21:00,72.9,59.3,29.70,WNW,294,5.0,10.0,62,0.00,,,0.00,0.0,WUHU216DAVISVP2,2013-06-10 07:21:00,
2013-06-10 00:26:00,72.7,59.1,29.70,West,277,2.0,9.0,62,0.00,,,0.00,0.0,WUHU216DAVISVP2,2013-06-10 07:26:00,
2013-06-10 00:30:00,72.5,58.7,29.70,WNW,293,5.0,10.0,62,0.00,,,0.00,0.0,WUHU216DAVISVP2,2013-06-10 07:30:00,
2013-06-10 00:31:00,72.5,59.4,29.71,WNW,300,6.0,10.0,63,0.00,,,0.00,0.0,WUHU216DAVISVP2,2013-06-10 07:31:00,
2013-06-10 00:36:00,72.2,59.1,29.71,WNW,282,2.0,10.0,63,0.00,,,0.00,0.0,WUHU216DAVISVP2,2013-06-10 07:36:00,
2013-06-10 00:40:00,71.9,59.1,29.71,WNW,293,4.0,10.0,64,0.00,,,0.00,0.0,WUHU216DAVISVP2,2013-06-10 07:40:00,
2013-06-10 00:41:00,71.8,59.2,29.71,West,265,4.0,10.0,64,0.00,,,0.00,0.0,WUHU216DAVISVP2,2013-06-10 07:41:00,
2013-06-10 00:46:00,71.4,59.2,29.71,WSW,240,2.0,10.0,65,0.00,,,0.00,0.0,WUHU216DAVISVP2,2013-06-10 07:46:00,
2013-06-10 00:50:00,70.9,59.8,29.71,West,270,4.0,9.0,68,0.00,,,0.00,0.0,WUHU216DAVISVP2,2013-06-10 07:50:00,
2013-06-10 00:51:00,70.7,59.8,29.71,West,261,4.0,7.0,68,0.00,,,0.00,0.0,WUHU216DAVISVP2,2013-06-10 07:51:00,
2013-06-10 00:56:00,70.2,59.7,29.72,West,265,4.0,7.0,69,0.00,,,0.00,0.0,WUHU216DAVISVP2,2013-06-10 07:56:00,
2013-06-10 01:00:00,69.9,59.3,29.72,West,270,4.0,7.0,69,0.00,,,0.00,0.0,WUHU216DAVISVP2,2013-06-10 08:00:00,
2013-06-10 01:01:00,69.8,59.4,29.72,WSW,258,3.0,7.0,69,0.00,,,0.00,0.0,WUHU216DAVISVP2,2013-06-10 08:01:00,
2013-06-10 01:06:00,69.5,59.1,29.72,West,275,6.0,8.0,69,0.00,,,0.00,0.0,WUHU216DAVISVP2,2013-06-10 08:06:00,
2013-06-10 01:10:00,69.3,58.7,29.72,WSW,248,5.0,10.0,69,0.00,,,0.00,0.0,WUHU216DAVISVP2,2013-06-10 08:10:00,
2013-06-10 01:11:00,69.2,58.8,29.72,West,266,5.0,10.0,69,0.00,,,0.00,0.0,WUHU216DAVISVP2,2013-06-10 08:11:00,
2013-06-10 01:16:00,68.8,58.4,29.72,WSW,252,5.0,10.0,69,0.00,,,0.00,0.0,WUHU216DAVISVP2,2013-06-10 08:16:00,
2013-06-10 01:20:00,68.6,58.0,29.72,West,270,5.0,10.0,69,0.00,,,0.00,0.0,WUHU216DAVISVP2,2013-06-10 08:20:00,
2013-06-10 01:21:00,68.5,58.5,29.72,WSW,252,7.0,10.0,70,0.00,,,0.00,0.0,WUHU216DAVISVP2,2013-06-10 08:21:00,
2013-06-10 01:26:00,68.3,58.3,29.73,WSW,256,5.0,10.0,70,0.00,,,0.00,0.0,WUHU216DAVISVP2,2013-06-10 08:26:00,
2013-06-10 01:30:00,68.1,57.9,29.73,WSW,248,5.0,10.0,70,0.00,,,0.00,0.0,WUHU216DAVISVP2,2013-06-10 08:30:00,
2013-06-10 01:31:00,68.1,58.1,29.73,SW,231,3.0,9.0,70,0.00,,,0.00,0.0,WUHU216DAVISVP2,2013-06-10 08:31:00,
2013-06-10 01:36:00,68.0,58.0,29.73,WSW,249,4.0,9.0,70,0.00,,,0.00,0.0,WUHU216DAVISVP2,2013-06-10 08:36:00,
2013-06-10 01:40:00,68.0,57.8,29.73,WSW,248,4.0,9.0,70,0.00,,,0.00,0.0,WUHU216DAVISVP2,2013-06-10 08:40:00,
2013-06-10 01:41:00,67.9,57.8,29.74,WSW,245,6.0,9.0,70,0.00,,,0.00,0.0,WUHU216DAVISVP2,2013-06-10 08:41:00,
2013-06-10 01:46:00,67.9,57.8,29.74,West,267,5.0,9.0,70,0.00,,,0.00,0.0,WUHU216DAVISVP2,2013-06-10 08:46:00,
2013-06-10 01:50:00,67.8,57.7,29.74,WSW,248,5.0,9.0,70,0.00,,,0.00,0.0,WUHU216DAVISVP2,2013-06-10 08:50:00,
2013-06-10 01:51:00,67.8,57.7,29.74,West,262,2.0,9.0,70,0.00,,,0.00,0.0,WUHU216DAVISVP2,2013-06-10 08:51:00,
2013-06-10 01:56:00,67.8,57.8,29.74,West,263,3.0,9.0,70,0.00,,,0.00,0.0,WUHU216DAVISVP2,2013-06-10 08:56:00,
2013-06-10 02:00:00,67.8,57.3,29.75,West,270,5.0,9.0,69,0.00,,,0.00,0.0,WUHU216DAVISVP2,2013-06-10 09:00:00,
2013-06-10 02:01:00,67.8,57.4,29.75,West,260,4.0,9.0,69,0.00,,,0.00,0.0,WUHU216DAVISVP2,2013-06-10 09:01:00,
2013-06-10 02:06:00,67.7,57.2,29.75,WSW,254,3.0,9.0,69,0.00,,,0.00,0.0,WUHU216DAVISVP2,2013-06-10 09:06:00,
2013-06-10 02:10:00,67.6,57.5,29.75,WSW,248,4.0,9.0,70,0.00,,,0.00,0.0,WUHU216DAVISVP2,2013-06-10 09:10:00,
2013-06-10 02:11:00,67.5,57.5,29.75,WSW,238,7.0,9.0,70,0.00,,,0.00,0.0,WUHU216DAVISVP2,2013-06-10 09:11:00,
2013-06-10 02:16:00,67.2,57.2,29.75,West,263,2.0,9.0,70,0.00,,,0.00,0.0,WUHU216DAVISVP2,2013-06-10 09:16:00,
2013-06-10 02:20:00,67.1,57.0,29.75,West,270,5.0,9.0,70,0.00,,,0.00,0.0,WUHU216DAVISVP2,2013-06-10 09:20:00,
2013-06-10 02:21:00,67.1,57.5,29.75,West,259,5.0,9.0,71,0.00,,,0.00,0.0,WUHU216DAVISVP2,2013-06-10 09:21:00,
2013-06-10 02:26:00,67.0,57.4,29.75,WSW,252,3.0,9.0,71,0.00,,,0.00,0.0,WUHU216DAVISVP2,2013-06-10 09:26:00,
2013-06-10 02:30:00,67.0,57.3,29.75,WSW,248,4.0,9.0,71,0.00,,,0.00,0.0,WUHU216DAVISVP2,2013-06-10 09:30:00,
2013-06-10 02:31:00,67.1,57.5,29.75,SW,236,5.0,8.0,71,0.00,,,0.00,0.0,WUHU216DAVISVP2,2013-06-10 09:31:00,
2013-06-10 02:36:00,67.1,57.5,29.75,WSW,251,3.0,8.0,71,0.00,,,0.00,0.0,WUHU216DAVISVP2,2013-06-10 09:36:00,
2013-06-10 02:40:00,66.8,57.1,29.75,WSW,248,4.0,8.0,71,0.00,,,0.00,0.0,WUHU216DAVISVP2,2013-06-10 09:40:00,
2013-06-10 02:41:00,66.7,57.2,29.76,WSW,255,5.0,8.0,71,0.00,,,0.00,0.0,WUHU216DAVISVP2,2013-06-10 09:41:00,
2013-06-10 02:46:00,66.3,56.6,29.75,WSW,257,7.0,9.0,71,0.00,,,0.00,0.0,WUHU216DAVISVP2,2013-06-10 09:46:00,
2013-06-10 02:50:00,66.2,56.9,29.76,WSW,248,6.0,9.0,72,0.00,,,0.00,0.0,WUHU216DAVISVP2,2013-06-10 09:50:00,
2013-06-10 02:51:00,66.2,56.9,29.76,West,261,5.0,9.0,72,0.00,,,0.00,0.0,WUHU216DAVISVP2,2013-06-10 09:51:00,
2013-06-10 02:56:00,66.1,57.0,29.76,West,270,6.0,10.0,72,0.00,,,0.00,0.0,WUHU216DAVISVP2,2013-06-10 09:56:00,
2013-06-10 03:00:00,66.0,56.7,29.76,West,270,5.0,10.0,72,0.00,,,0.00,0.0,WUHU216DAVISVP2,2013-06-10 10:00:00,
2013-06-10 03:01:00,66.0,56.9,29.76,West,268,5.0,10.0,72,0.00,,,0.00,0.0,WUHU216DAVISVP2,2013-06-10 10:01:00,
2013-06-10 03:06:00,66.1,57.0,29.76,West,272,1.0,10.0,72,0.00,,,0.00,0.0,WUHU216DAVISVP2,2013-06-10 10:06:00,
2013-06-10 03:10:00,66.1,56.8,29.76,West,270,4.0,10.0,72,0.00,,,0.00,0.0,WUHU216DAVISVP2,2013-06-10 10:10:00,
2013-06-10 03:11:00,66.1,57.0,29.75,WSW,252,3.0,9.0,72,0.00,,,0.00,0.0,WUHU216DAVISVP2,2013-06-10 10:11:00,
2013-06-10 03:16:00,65.9,56.6,29.76,West,278,1.0,8.0,72,0.00,,,0.00,0.0,WUHU216DAVISVP2,2013-06-10 10:16:00,
2013-06-10 03:20:00,65.8,56.9,29.76,West,270,3.0,8.0,73,0.00,,,0.00,0.0,WUHU216DAVISVP2,2013-06-10 10:20:00,
2013-06-10 03:21:00,65.7,56.8,29.76,West,265,4.0,7.0,73,0.00,,,0.00,0.0,WUHU216DAVISVP2,2013-06-10 10:21:00,
2013-06-10 03:26:00,65.5,56.6,29.76,West,273,4.0,7.0,73,0.00,,,0.00,0.0,WUHU216DAVISVP2,2013-06-10 10:26:00,
2013-06-10 03:30:00,65.4,56.5,29.76,West,270,3.0,7.0,73,0.00,,,0.00,0.0,WUHU216DAVISVP2,2013-06-10 10:30:00,
2013-06-10 03:31:00,65.3,56.8,29.76,WSW,245,6.0,7.0,74,0.00,,,0.00,0.0,WUHU216DAVISVP2,2013-06-10 10:31:00,
2013-06-10 03:36:00,65.2,56.7,29.76,West,274,0.0,7.0,74,0.00,,,0.00,0.0,WUHU216DAVISVP2,2013-06-10 10:36:00,
2013-06-10 03:40:00,65.0,56.5,29.76,West,270,3.0,7.0,74,0.00,,,0.00,0.0,WUHU216DAVISVP2,2013-06-10 10:40:00,
2013-06-10 03:41:00,65.0,56.5,29.76,West,263,1.0,7.0,74,0.00,,,0.00,0.0,WUHU216DAVISVP2,2013-06-10 10:41:00,
2013-06-10 03:46:00,64.8,56.8,29.76,West,277,3.0,6.0,75,0.00,,,0.00,0.0,WUHU216DAVISVP2,2013-06-10 10:46:00,
2013-06-10 03:50:00,64.5,56.8,29.76,West,270,4.0,6.0,76,0.00,,,0.00,0.0,WUHU216DAVISVP2,2013-06-10 10:50:00,
2013-06-10 03:51:00,64.4,56.8,29.76,WNW,290,2.0,6.0,76,0.00,,,0.00,0.0,WUHU216DAVISVP2,2013-06-10 10:51:00,
2013-06-10 03:56:00,64.1,56.8,29.77,West,274,0.0,6.0,77,0.00,,,0.00,0.0,WUHU216DAVISVP2,2013-06-10 10:56:00,
2013-06-10 04:00:00,64.0,56.6,29.77,WNW,293,2.0,6.0,77,0.00,,,0.00,0.0,WUHU216DAVISVP2,2013-06-10 11:00:00,
2013-06-10 04:01:00,63.9,56.6,29.77,West,261,0.0,6.0,77,0.00,,,0.00,0.0,WUHU216DAVISVP2,2013-06-10 11:01:00,
2013-06-10 04:06:00,63.8,56.5,29.77,West,261,0.0,6.0,77,0.00,,,0.00,0.0,WUHU216DAVISVP2,2013-06-10 11:06:00,
2013-06-10 04:10:00,63.9,56.5,29.77,West,270,0.0,5.0,77,0.00,,,0.00,0.0,WUHU216DAVISVP2,2013-06-10 11:10:00,
2013-06-10 04:11:00,63.9,56.6,29.77,West,261,0.0,5.0,77,0.00,,,0.00,0.0,WUHU216DAVISVP2,2013-06-10 11:11:00,
2013-06-10 04:16:00,63.9,56.5,29.77,West,261,0.0,4.0,77,0.00,,,0.00,0.0,WUHU216DAVISVP2,2013-06-10 11:16:00,
2013-06-10 04:20:00,63.8,56.1,29.77,North,0,0.0,1.0,76,0.00,,,0.00,0.0,WUHU216DAVISVP2,2013-06-10 11:20:00,
2013-06-10 04:21:00,63.9,56.3,29.77,West,261,0.0,1.0,76,0.00,,,0.00,0.0,WUHU216DAVISVP2,2013-06-10 11:21:00,
2013-06-10 04:26:00,63.8,56.2,29.78,West,261,0.0,1.0,76,0.00,,,0.00,0.0,WUHU216DAVISVP2,2013-06-10 11:26:00,
2013-06-10 04:30:00,63.8,56.1,29.78,West,270,0.0,1.0,76,0.00,,,0.00,0.0,WUHU216DAVISVP2,2013-06-10 11:30:00,
2013-06-10 04:31:00,63.8,56.2,29.78,West,261,0.0,1.0,76,0.00,,,0.00,0.0,WUHU216DAVISVP2,2013-06-10 11:31:00,
2013-06-10 04:36:00,63.7,56.1,29.78,West,261,0.0,1.0,76,0.00,,,0.00,0.0,WUHU216DAVISVP2,2013-06-10 11:36:00,
2013-06-10 04:40:00,63.7,56.0,29.78,West,270,0.0,2.0,76,0.00,,,0.00,0.0,WUHU216DAVISVP2,2013-06-10 11:40:00,
2013-06-10 04:41:00,63.7,56.0,29.78,West,261,0.0,2.0,76,0.00,,,0.00,0.0,WUHU216DAVISVP2,2013-06-10 11:41:00,
2013-06-10 04:46:00,63.7,56.0,29.78,West,261,1.0,2.0,76,0.00,,,0.00,0.0,WUHU216DAVISVP2,2013-06-10 11:46:00,
2013-06-10 04:50:00,63.6,55.9,29.78,West,270,0.0,2.0,76,0.00,,,0.00,0.0,WUHU216DAVISVP2,2013-06-10 11:50:00,
2013-06-10 04:51:00,63.6,55.9,29.78,West,261,0.0,2.0,76,0.00,,,0.00,0.0,WUHU216DAVISVP2,2013-06-10 11:51:00,
2013-06-10 04:56:00,63.6,56.4,29.78,West,261,2.0,4.0,77,0.00,,,0.00,0.0,WUHU216DAVISVP2,2013-06-10 11:56:00,
2013-06-10 05:00:00,63.6,56.3,29.78,West,270,1.0,4.0,77,0.00,,,0.00,0.0,WUHU216DAVISVP2,2013-06-10 12:00:00,
2013-06-10 05:01:00,63.6,56.4,29.78,West,267,2.0,4.0,77,0.00,,,0.00,0.0,WUHU216DAVISVP2,2013-06-10 12:01:00,
2013-06-10 05:05:00,63.4,56.2,29.78,West,279,2.0,5.0,77,0.00,,,0.00,0.0,WUHU216DAVISVP2,2013-06-10 12:05:00,
2013-06-10 05:10:00,63.3,56.4,29.78,WNW,285,1.0,5.0,78,0.00,,,0.00,0.0,WUHU216DAVISVP2,2013-06-10 12:10:00,
2013-06-10 05:15:00,63.2,56.3,29.78,WNW,285,2.0,5.0,78,0.00,,,0.00,0.0,WUHU216DAVISVP2,2013-06-10 12:15:00,
2013-06-10 05:20:00,63.1,56.2,29.79,WNW,285,0.0,5.0,78,0.00,,,0.00,0.0,WUHU216DAVISVP2,2013-06-10 12:20:00,
2013-06-10 05:25:00,62.9,56.4,29.79,WNW,285,1.0,4.0,79,0.00,,,0.00,0.0,WUHU216DAVISVP2,2013-06-10 12:25:00,
2013-06-10 05:30:00,62.7,56.2,29.79,West,281,0.0,4.0,79,0.00,,,0.00,0.0,WUHU216DAVISVP2,2013-06-10 12:30:00,
2013-06-10 05:35:00,62.6,56.0,29.79,West,264,5.0,5.0,79,0.00,,,0.00,0.0,WUHU216DAVISVP2,2013-06-10 12:35:00,
2013-06-10 05:40:00,62.5,55.9,29.79,West,274,4.0,5.0,79,0.00,,,0.00,0.0,WUHU216DAVISVP2,2013-06-10 12:40:00,
2013-06-10 05:45:00,62.3,55.7,29.79,WNW,290,3.0,5.0,79,0.00,,,0.00,7.0,WUHU216DAVISVP2,2013-06-10 12:45:00,
2013-06-10 05:50:00,62.2,56.0,29.79,West,269,4.0,5.0,80,0.00,,,0.00,9.0,WUHU216DAVISVP2,2013-06-10 12:50:00,
2013-06-10 05:55:00,62.1,55.9,29.80,West,272,4.0,6.0,80,0.00,,,0.00,12.0,WUHU216DAVISVP2,2013-06-10 12:55:00,
2013-06-10 06:00:00,61.9,56.1,29.79,WNW,290,4.0,6.0,81,0.00,,,0.00,16.0,WUHU216DAVISVP2,2013-06-10 13:00:00,
2013-06-10 06:05:00,61.8,56.0,29.80,WNW,292,4.0,6.0,81,0.00,,,0.00,19.0,WUHU216DAVISVP2,2013-06-10 13:05:00,
2013-06-10 06:10:00,61.6,55.8,29.80,West,267,4.0,6.0,81,0.00,,,0.00,25.0,WUHU216DAVISVP2,2013-06-10 13:10:00,
2013-06-10 06:15:00,61.6,56.1,29.80,West,271,2.0,6.0,82,0.00,,,0.00,35.0,WUHU216DAVISVP2,2013-06-10 13:15:00,
2013-06-10 06:20:00,61.5,56.0,29.80,WNW,283,3.0,6.0,82,0.00,,,0.00,56.0,WUHU216DAVISVP2,2013-06-10 13:20:00,
2013-06-10 06:25:00,61.4,55.9,29.80,WNW,292,4.0,6.0,82,0.00,,,0.00,67.0,WUHU216DAVISVP2,2013-06-10 13:25:00,
2013-06-10 06:30:00,61.4,55.9,29.80,West,280,4.0,7.0,82,0.00,,,0.00,84.0,WUHU216DAVISVP2,2013-06-10 13:30:00,
2013-06-10 06:35:00,61.5,56.0,29.80,WNW,285,2.0,7.0,82,0.00,,,0.00,107.0,WUHU216DAVISVP2,2013-06-10 13:35:00,
2013-06-10 06:40:00,61.5,56.0,29.81,WNW,294,2.0,7.0,82,0.00,,,0.00,116.0,WUHU216DAVISVP2,2013-06-10 13:40:00,
2013-06-10 06:45:00,61.5,56.0,29.81,WNW,284,6.0,6.0,82,0.00,,,0.00,127.0,WUHU216DAVISVP2,2013-06-10 13:45:00,
2013-06-10 06:50:00,61.4,55.9,29.81,NW,307,3.0,7.0,82,0.00,,,0.00,144.0,WUHU216DAVISVP2,2013-06-10 13:50:00,
2013-06-10 06:55:00,61.7,56.2,29.81,WNW,287,0.0,7.0,82,0.00,,,0.00,158.0,WUHU216DAVISVP2,2013-06-10 13:55:00,
2013-06-10 07:00:00,61.9,56.4,29.82,NNW,342,5.0,7.0,82,0.00,,,0.00,169.0,WUHU216DAVISVP2,2013-06-10 14:00:00,
2013-06-10 07:05:00,62.3,56.4,29.82,WNW,287,4.0,7.0,81,0.00,,,0.00,181.0,WUHU216DAVISVP2,2013-06-10 14:05:00,
2013-06-10 07:10:00,62.6,56.7,29.82,NW,312,3.0,6.0,81,0.00,,,0.00,195.0,WUHU216DAVISVP2,2013-06-10 14:10:00,
2013-06-10 07:15:00,62.9,56.7,29.83,WNW,296,6.0,6.0,80,0.00,,,0.00,209.0,WUHU216DAVISVP2,2013-06-10 14:15:00,
2013-06-10 07:20:00,63.2,56.7,29.83,NNW,330,1.0,6.0,79,0.00,,,0.00,221.0,WUHU216DAVISVP2,2013-06-10 14:20:00,
2013-06-10 07:25:00,63.6,57.0,29.83,WNW,288,3.0,6.0,79,0.00,,,0.00,239.0,WUHU216DAVISVP2,2013-06-10 14:25:00,
2013-06-10 07:30:00,63.7,56.4,29.83,WNW,286,3.0,6.0,77,0.00,,,0.00,253.0,WUHU216DAVISVP2,2013-06-10 14:30:00,
2013-06-10 07:35:00,63.9,56.6,29.83,WNW,290,4.0,6.0,77,0.00,,,0.00,267.0,WUHU216DAVISVP2,2013-06-10 14:35:00,
2013-06-10 07:40:00,64.1,56.8,29.84,NW,324,3.0,6.0,77,0.00,,,0.00,281.0,WUHU216DAVISVP2,2013-06-10 14:40:00,
2013-06-10 07:45:00,64.6,57.0,29.84,WNW,288,4.0,6.0,76,0.00,,,0.00,301.0,WUHU216DAVISVP2,2013-06-10 14:45:00,
2013-06-10 07:50:00,64.9,56.5,29.84,NW,319,3.0,7.0,74,0.00,,,0.00,315.0,WUHU216DAVISVP2,2013-06-10 14:50:00,
2013-06-10 07:55:00,65.2,56.8,29.84,NW,318,0.0,7.0,74,0.00,,,0.00,330.0,WUHU216DAVISVP2,2013-06-10 14:55:00,
2013-06-10 08:00:00,65.6,56.3,29.84,West,261,5.0,7.0,72,0.00,,,0.00,348.0,WUHU216DAVISVP2,2013-06-10 15:00:00,
2013-06-10 08:05:00,65.5,56.2,29.84,WNW,289,2.0,8.0,72,0.00,,,0.00,362.0,WUHU216DAVISVP2,2013-06-10 15:05:00,
2013-06-10 08:10:00,65.8,56.5,29.85,WNW,284,4.0,8.0,72,0.00,,,0.00,376.0,WUHU216DAVISVP2,2013-06-10 15:10:00,
2013-06-10 08:15:00,65.6,55.9,29.85,WNW,299,3.0,8.0,71,0.00,,,0.00,390.0,WUHU216DAVISVP2,2013-06-10 15:15:00,
2013-06-10 08:20:00,65.8,56.5,29.85,WNW,289,3.0,8.0,72,0.00,,,0.00,408.0,WUHU216DAVISVP2,2013-06-10 15:20:00,
2013-06-10 08:25:00,66.2,56.1,29.85,WNW,300,5.0,8.0,70,0.00,,,0.00,422.0,WUHU216DAVISVP2,2013-06-10 15:25:00,
2013-06-10 08:30:00,66.5,56.8,29.85,NNW,333,4.0,8.0,71,0.00,,,0.00,439.0,WUHU216DAVISVP2,2013-06-10 15:30:00,
2013-06-10 08:35:00,67.0,56.5,29.86,NW,318,3.0,7.0,69,0.00,,,0.00,452.0,WUHU216DAVISVP2,2013-06-10 15:35:00,
2013-06-10 08:40:00,67.4,56.9,29.86,NW,317,2.0,7.0,69,0.00,,,0.00,469.0,WUHU216DAVISVP2,2013-06-10 15:40:00,
2013-06-10 08:45:00,67.8,57.3,29.86,WNW,285,1.0,6.0,69,0.00,,,0.00,483.0,WUHU216DAVISVP2,2013-06-10 15:45:00,
2013-06-10 08:50:00,67.7,56.8,29.86,WNW,288,3.0,7.0,68,0.00,,,0.00,503.0,WUHU216DAVISVP2,2013-06-10 15:50:00,
2013-06-10 08:55:00,67.2,56.7,29.86,WSW,250,1.0,7.0,69,0.00,,,0.00,508.0,WUHU216DAVISVP2,2013-06-10 15:55:00,
2013-06-10 09:00:00,67.5,57.1,29.86,West,277,3.0,7.0,69,0.00,,,0.00,527.0,WUHU216DAVISVP2,2013-06-10 16:00:00,
2013-06-10 09:05:00,68.3,57.5,29.86,NW,307,3.0,7.0,68,0.00,,,0.00,536.0,WUHU216DAVISVP2,2013-06-10 16:05:00,
2013-06-10 09:10:00,68.8,57.2,29.86,WSW,251,4.0,6.0,66,0.00,,,0.00,564.0,WUHU216DAVISVP2,2013-06-10 16:10:00,
2013-06-10 09:15:00,68.8,57.2,29.86,SW,233,2.0,6.0,66,0.00,,,0.00,571.0,WUHU216DAVISVP2,2013-06-10 16:15:00,
2013-06-10 09:20:00,69.0,57.4,29.86,WNW,300,0.0,5.0,66,0.00,,,0.00,589.0,WUHU216DAVISVP2,2013-06-10 16:20:00,
2013-06-10 09:25:00,69.5,57.4,29.87,WSW,246,3.0,5.0,65,0.00,,,0.00,596.0,WUHU216DAVISVP2,2013-06-10 16:25:00,
2013-06-10 09:30:00,69.5,57.4,29.86,NW,316,2.0,5.0,65,0.00,,,0.00,621.0,WUHU216DAVISVP2,2013-06-10 16:30:00,
2013-06-10 09:35:00,69.7,57.6,29.87,South,186,0.0,7.0,65,0.00,,,0.00,631.0,WUHU216DAVISVP2,2013-06-10 16:35:00,
2013-06-10 09:40:00,69.7,57.2,29.87,WSW,251,3.0,7.0,64,0.00,,,0.00,624.0,WUHU216DAVISVP2,2013-06-10 16:40:00,
2013-06-10 09:45:00,69.1,57.0,29.87,SW,229,4.0,7.0,65,0.00,,,0.00,647.0,WUHU216DAVISVP2,2013-06-10 16:45:00,
2013-06-10 09:50:00,69.1,57.0,29.86,WSW,242,0.0,7.0,65,0.00,,,0.00,663.0,WUHU216DAVISVP2,2013-06-10 16:50:00,
2013-06-10 09:55:00,69.8,57.7,29.87,WNW,294,2.0,7.0,65,0.00,,,0.00,677.0,WUHU216DAVISVP2,2013-06-10 16:55:00,
2013-06-10 10:00:00,70.7,57.7,29.87,NNE,15,4.0,6.0,63,0.00,,,0.00,689.0,WUHU216DAVISVP2,2013-06-10 17:00:00,
2013-06-10 10:05:00,71.1,57.6,29.87,NW,325,3.0,7.0,62,0.00,,,0.00,698.0,WUHU216DAVISVP2,2013-06-10 17:05:00,
2013-06-10 10:10:00,71.0,57.1,29.87,NE,38,4.0,7.0,61,0.00,,,0.00,708.0,WUHU216DAVISVP2,2013-06-10 17:10:00,
2013-06-10 10:15:00,70.9,57.4,29.87,NW,311,4.0,7.0,62,0.00,,,0.00,721.0,WUHU216DAVISVP2,2013-06-10 17:15:00,
2013-06-10 10:20:00,71.2,56.8,29.87,NW,313,1.0,6.0,60,0.00,,,0.00,733.0,WUHU216DAVISVP2,2013-06-10 17:20:00,
2013-06-10 10:25:00,71.3,57.3,29.87,NE,53,0.0,6.0,61,0.00,,,0.00,749.0,WUHU216DAVISVP2,2013-06-10 17:25:00,
2013-06-10 10:30:00,72.3,57.8,29.87,NNW,331,1.0,6.0,60,0.00,,,0.00,752.0,WUHU216DAVISVP2,2013-06-10 17:30:00,
2013-06-10 10:35:00,73.0,57.5,29.87,NW,319,2.0,6.0,58,0.00,,,0.00,766.0,WUHU216DAVISVP2,2013-06-10 17:35:00,
2013-06-10 10:40:00,72.8,56.7,29.87,WNW,295,4.0,8.0,57,0.00,,,0.00,768.0,WUHU216DAVISVP2,2013-06-10 17:40:00,
2013-06-10 10:45:00,72.4,56.8,29.87,West,273,1.0,8.0,58,0.00,,,0.00,784.0,WUHU216DAVISVP2,2013-06-10 17:45:00,
2013-06-10 10:50:00,72.4,56.8,29.87,ESE,108,4.0,8.0,58,0.00,,,0.00,796.0,WUHU216DAVISVP2,2013-06-10 17:50:00,
2013-06-10 10:55:00,72.9,57.3,29.87,WSW,256,3.0,8.0,58,0.00,,,0.00,802.0,WUHU216DAVISVP2,2013-06-10 17:55:00,
2013-06-10 11:00:00,73.0,57.3,29.87,WNW,294,0.0,5.0,58,0.00,,,0.00,809.0,WUHU216DAVISVP2,2013-06-10 18:00:00,
2013-06-10 11:05:00,73.2,57.1,29.87,WNW,294,1.0,5.0,57,0.00,,,0.00,817.0,WUHU216DAVISVP2,2013-06-10 18:05:00,
2013-06-10 11:10:00,73.6,57.4,29.86,WNW,294,0.0,5.0,57,0.00,,,0.00,826.0,WUHU216DAVISVP2,2013-06-10 18:10:00,
2013-06-10 11:15:00,74.0,56.8,29.86,WSW,252,2.0,8.0,55,0.00,,,0.00,830.0,WUHU216DAVISVP2,2013-06-10 18:15:00,
2013-06-10 11:20:00,74.0,56.3,29.86,NW,310,0.0,8.0,54,0.00,,,0.00,838.0,WUHU216DAVISVP2,2013-06-10 18:20:00,
2013-06-10 11:25:00,74.8,57.2,29.86,NW,312,7.0,9.0,54,0.00,,,0.00,844.0,WUHU216DAVISVP2,2013-06-10 18:25:00,
2013-06-10 11:30:00,74.5,56.9,29.86,WNW,289,5.0,9.0,54,0.00,,,0.00,851.0,WUHU216DAVISVP2,2013-06-10 18:30:00,
2013-06-10 11:35:00,74.3,56.7,29.86,NW,314,4.0,9.0,54,0.00,,,0.00,861.0,WUHU216DAVISVP2,2013-06-10 18:35:00,
2013-06-10 11:40:00,74.4,56.2,29.86,WNW,293,3.0,9.0,53,0.00,,,0.00,859.0,WUHU216DAVISVP2,2013-06-10 18:40:00,
2013-06-10 11:41:00,74.6,57.5,29.86,WNW,287,8.0,9.0,55,0.00,,,0.00,867.0,WUHU216DAVISVP2,2013-06-10 18:41:00,
2013-06-10 11:46:00,74.6,57.0,29.86,WSW,237,0.0,9.0,54,0.00,,,0.00,868.0,WUHU216DAVISVP2,2013-06-10 18:46:00,
2013-06-10 11:50:00,74.9,57.1,29.86,WSW,248,3.0,9.0,54,0.00,,,0.00,870.0,WUHU216DAVISVP2,2013-06-10 18:50:00,
2013-06-10 11:51:00,75.3,57.1,29.86,SW,227,0.0,9.0,53,0.00,,,0.00,874.0,WUHU216DAVISVP2,2013-06-10 18:51:00,
2013-06-10 11:56:00,76.4,58.1,29.86,NNW,344,2.0,9.0,53,0.00,,,0.00,877.0,WUHU216DAVISVP2,2013-06-10 18:56:00,
2013-06-10 12:00:00,76.7,57.2,29.86,NNW,338,2.0,9.0,51,0.00,,,0.00,879.0,WUHU216DAVISVP2,2013-06-10 19:00:00,
2013-06-10 12:01:00,76.8,58.0,29.86,NW,304,2.0,7.0,52,0.00,,,0.00,893.0,WUHU216DAVISVP2,2013-06-10 19:01:00,
2013-06-10 12:06:00,76.6,57.8,29.86,West,261,4.0,7.0,52,0.00,,,0.00,891.0,WUHU216DAVISVP2,2013-06-10 19:06:00,
2013-06-10 12:10:00,76.5,57.0,29.86,WNW,293,4.0,10.0,51,0.00,,,0.00,892.0,WUHU216DAVISVP2,2013-06-10 19:10:00,
2013-06-10 12:11:00,76.2,56.9,29.86,West,269,3.0,10.0,51,0.00,,,0.00,898.0,WUHU216DAVISVP2,2013-06-10 19:11:00,
2013-06-10 12:16:00,76.4,57.0,29.86,WNW,290,0.0,12.0,51,0.00,,,0.00,898.0,WUHU216DAVISVP2,2013-06-10 19:16:00,
2013-06-10 12:20:00,76.9,57.4,29.86,WNW,293,3.0,12.0,51,0.00,,,0.00,897.0,WUHU216DAVISVP2,2013-06-10 19:20:00,
2013-06-10 12:21:00,77.0,56.5,29.86,West,261,4.0,12.0,49,0.00,,,0.00,907.0,WUHU216DAVISVP2,2013-06-10 19:21:00,
2013-06-10 12:26:00,77.7,57.1,29.85,NW,304,3.0,12.0,49,0.00,,,0.00,918.0,WUHU216DAVISVP2,2013-06-10 19:26:00,
2013-06-10 12:30:00,78.0,56.7,29.86,West,270,4.0,12.0,48,0.00,,,0.00,913.0,WUHU216DAVISVP2,2013-06-10 19:30:00,
2013-06-10 12:31:00,78.1,56.3,29.85,WNW,283,9.0,12.0,47,0.00,,,0.00,918.0,WUHU216DAVISVP2,2013-06-10 19:31:00,
2013-06-10 12:36:00,77.6,56.4,29.85,NW,315,3.0,11.0,48,0.00,,,0.00,919.0,WUHU216DAVISVP2,2013-06-10 19:36:00,
2013-06-10 12:40:00,78.2,56.9,29.85,WNW,293,5.0,11.0,48,0.00,,,0.00,922.0,WUHU216DAVISVP2,2013-06-10 19:40:00,
2013-06-10 12:41:00,78.6,56.7,29.85,WNW,287,5.0,11.0,47,0.00,,,0.00,921.0,WUHU216DAVISVP2,2013-06-10 19:41:00,
2013-06-10 12:46:00,78.8,56.3,29.85,WNW,292,3.0,11.0,46,0.00,,,0.00,932.0,WUHU216DAVISVP2,2013-06-10 19:46:00,
2013-06-10 12:50:00,78.7,56.2,29.85,WNW,293,4.0,11.0,46,0.00,,,0.00,931.0,WUHU216DAVISVP2,2013-06-10 19:50:00,
2013-06-10 12:51:00,78.4,55.3,29.85,WNW,292,4.0,11.0,45,0.00,,,0.00,937.0,WUHU216DAVISVP2,2013-06-10 19:51:00,
2013-06-10 12:56:00,78.4,56.6,29.85,WSW,257,5.0,9.0,47,0.00,,,0.00,939.0,WUHU216DAVISVP2,2013-06-10 19:56:00,
2013-06-10 13:00:00,78.3,55.8,29.85,West,270,5.0,9.0,46,0.00,,,0.00,938.0,WUHU216DAVISVP2,2013-06-10 20:00:00,
2013-06-10 13:01:00,78.3,55.2,29.85,West,281,6.0,9.0,45,0.00,,,0.00,976.0,WUHU216DAVISVP2,2013-06-10 20:01:00,
2013-06-10 13:06:00,78.1,55.0,29.85,North,355,7.0,9.0,45,0.00,,,0.00,1004.0,WUHU216DAVISVP2,2013-06-10 20:06:00,
2013-06-10 13:10:00,78.5,54.8,29.85,WNW,293,6.0,10.0,44,0.00,,,0.00,1001.0,WUHU216DAVISVP2,2013-06-10 20:10:00,
2013-06-10 13:11:00,78.7,54.9,29.85,West,278,3.0,10.0,44,0.00,,,0.00,1136.0,WUHU216DAVISVP2,2013-06-10 20:11:00,
2013-06-10 13:16:00,79.3,54.8,29.85,NW,319,7.0,10.0,43,0.00,,,0.00,555.0,WUHU216DAVISVP2,2013-06-10 20:16:00,
2013-06-10 13:20:00,79.0,55.2,29.85,WNW,293,5.0,10.0,44,0.00,,,0.00,678.0,WUHU216DAVISVP2,2013-06-10 20:20:00,
2013-06-10 13:21:00,78.9,55.1,29.85,NW,315,7.0,11.0,44,0.00,,,0.00,608.0,WUHU216DAVISVP2,2013-06-10 20:21:00,
2013-06-10 13:26:00,78.9,55.1,29.85,NNW,336,9.0,13.0,44,0.00,,,0.00,1028.0,WUHU216DAVISVP2,2013-06-10 20:26:00,
2013-06-10 13:30:00,79.7,54.6,29.85,WNW,293,7.0,13.0,42,0.00,,,0.00,876.0,WUHU216DAVISVP2,2013-06-10 20:30:00,
2013-06-10 13:31:00,80.0,54.1,29.85,WNW,295,1.0,13.0,41,0.00,,,0.00,976.0,WUHU216DAVISVP2,2013-06-10 20:31:00,
2013-06-10 13:36:00,80.5,53.2,29.85,NW,309,1.0,13.0,39,0.00,,,0.00,953.0,WUHU216DAVISVP2,2013-06-10 20:36:00,
2013-06-10 13:40:00,81.0,53.7,29.85,NW,315,4.0,13.0,39,0.00,,,0.00,957.0,WUHU216DAVISVP2,2013-06-10 20:40:00,
2013-06-10 13:41:00,81.1,53.7,29.85,NNW,334,5.0,13.0,39,0.00,,,0.00,816.0,WUHU216DAVISVP2,2013-06-10 20:41:00,
2013-06-10 13:46:00,81.4,56.1,29.84,NNE,18,8.0,10.0,42,0.00,,,0.00,958.0,WUHU216DAVISVP2,2013-06-10 20:46:00,
2013-06-10 13:50:00,81.2,55.9,29.84,NW,315,6.0,13.0,42,0.00,,,0.00,922.0,WUHU216DAVISVP2,2013-06-10 20:50:00,
2013-06-10 13:51:00,81.0,55.1,29.84,West,262,8.0,13.0,41,0.00,,,0.00,962.0,WUHU216DAVISVP2,2013-06-10 20:51:00,
2013-06-10 13:56:00,80.7,52.7,29.84,ENE,59,3.0,13.0,38,0.00,,,0.00,1032.0,WUHU216DAVISVP2,2013-06-10 20:56:00,
2013-06-10 14:00:00,80.9,54.3,29.84,WNW,293,5.0,13.0,40,0.00,,,0.00,955.0,WUHU216DAVISVP2,2013-06-10 21:00:00,
2013-06-10 14:01:00,81.1,54.5,29.84,NNW,346,9.0,13.0,40,0.00,,,0.00,1032.0,WUHU216DAVISVP2,2013-06-10 21:01:00,
2013-06-10 14:06:00,81.8,53.0,29.84,NNW,340,5.0,13.0,37,0.00,,,0.00,599.0,WUHU216DAVISVP2,2013-06-10 21:06:00,
2013-06-10 14:10:00,81.6,53.5,29.84,NW,315,7.0,12.0,38,0.00,,,0.00,902.0,WUHU216DAVISVP2,2013-06-10 21:10:00,
2013-06-10 14:11:00,81.4,54.1,29.84,WNW,300,6.0,12.0,39,0.00,,,0.00,942.0,WUHU216DAVISVP2,2013-06-10 21:11:00,
2013-06-10 14:16:00,81.8,54.4,29.84,NW,306,6.0,12.0,39,0.00,,,0.00,953.0,WUHU216DAVISVP2,2013-06-10 21:16:00,
2013-06-10 14:20:00,82.1,54.0,29.84,NNW,338,5.0,12.0,38,0.00,,,0.00,910.0,WUHU216DAVISVP2,2013-06-10 21:20:00,
2013-06-10 14:21:00,82.4,54.9,29.84,WSW,244,5.0,12.0,39,0.00,,,0.00,824.0,WUHU216DAVISVP2,2013-06-10 21:21:00,
2013-06-10 14:26:00,82.3,53.3,29.84,WNW,288,5.0,12.0,37,0.00,,,0.00,729.0,WUHU216DAVISVP2,2013-06-10 21:26:00,
2013-06-10 14:30:00,81.4,53.4,29.84,WNW,293,6.0,12.0,38,0.00,,,0.00,720.0,WUHU216DAVISVP2,2013-06-10 21:30:00,
2013-06-10 14:31:00,81.0,52.9,29.84,WNW,292,2.0,12.0,38,0.00,,,0.00,664.0,WUHU216DAVISVP2,2013-06-10 21:31:00,
2013-06-10 14:36:00,80.8,53.4,29.84,West,260,5.0,12.0,39,0.00,,,0.00,914.0,WUHU216DAVISVP2,2013-06-10 21:36:00,
2013-06-10 14:40:00,80.8,54.9,29.84,WNW,293,6.0,12.0,41,0.00,,,0.00,693.0,WUHU216DAVISVP2,2013-06-10 21:40:00,
2013-06-10 14:41:00,80.8,54.9,29.84,West,281,7.0,12.0,41,0.00,,,0.00,401.0,WUHU216DAVISVP2,2013-06-10 21:41:00,
2013-06-10 14:46:00,80.7,54.8,29.84,WNW,298,12.0,12.0,41,0.00,,,0.00,309.0,WUHU216DAVISVP2,2013-06-10 21:46:00,
2013-06-10 14:50:00,80.5,54.6,29.84,NW,315,7.0,16.0,41,0.00,,,0.00,373.0,WUHU216DAVISVP2,2013-06-10 21:50:00,
2013-06-10 14:51:00,80.4,54.5,29.84,NW,319,6.0,16.0,41,0.00,,,0.00,271.0,WUHU216DAVISVP2,2013-06-10 21:51:00,
2013-06-10 14:56:00,79.8,54.6,29.84,WNW,299,12.0,16.0,42,0.00,,,0.00,302.0,WUHU216DAVISVP2,2013-06-10 21:56:00,
2013-06-10 15:00:00,79.2,55.4,29.84,NW,315,7.0,16.0,44,0.00,,,0.00,296.0,WUHU216DAVISVP2,2013-06-10 22:00:00,
2013-06-10 15:01:00,79.3,55.5,29.85,WNW,288,6.0,16.0,44,0.00,,,0.00,352.0,WUHU216DAVISVP2,2013-06-10 22:01:00,
2013-06-10 15:06:00,78.7,54.9,29.85,NW,316,7.0,14.0,44,0.00,,,0.00,315.0,WUHU216DAVISVP2,2013-06-10 22:06:00,
2013-06-10 15:10:00,78.3,55.2,29.85,NW,315,9.0,14.0,45,0.00,,,0.00,328.0,WUHU216DAVISVP2,2013-06-10 22:10:00,
2013-06-10 15:11:00,78.3,55.2,29.84,WNW,302,6.0,14.0,45,0.00,,,0.00,346.0,WUHU216DAVISVP2,2013-06-10 22:11:00,
2013-06-10 15:16:00,78.6,55.5,29.84,WNW,302,8.0,14.0,45,0.00,,,0.00,406.0,WUHU216DAVISVP2,2013-06-10 22:16:00,
2013-06-10 15:20:00,79.2,54.8,29.84,NW,315,7.0,14.0,43,0.00,,,0.00,727.0,WUHU216DAVISVP2,2013-06-10 22:20:00,
2013-06-10 15:21:00,79.5,54.4,29.84,NNW,347,8.0,14.0,42,0.00,,,0.00,981.0,WUHU216DAVISVP2,2013-06-10 22:21:00,
2013-06-10 15:26:00,80.6,54.7,29.84,NW,305,5.0,13.0,41,0.00,,,0.00,359.0,WUHU216DAVISVP2,2013-06-10 22:26:00,
2013-06-10 15:30:00,80.5,54.0,29.84,NW,315,5.0,12.0,40,0.00,,,0.00,510.0,WUHU216DAVISVP2,2013-06-10 22:30:00,
2013-06-10 15:31:00,80.4,53.9,29.84,NNW,330,5.0,11.0,40,0.00,,,0.00,357.0,WUHU216DAVISVP2,2013-06-10 22:31:00,
2013-06-10 15:36:00,80.6,53.4,29.84,WNW,291,7.0,10.0,39,0.00,,,0.00,332.0,WUHU216DAVISVP2,2013-06-10 22:36:00,
2013-06-10 15:40:00,80.3,53.1,29.84,NW,315,5.0,10.0,39,0.00,,,0.00,521.0,WUHU216DAVISVP2,2013-06-10 22:40:00,
2013-06-10 15:41:00,80.3,53.1,29.83,NW,320,4.0,10.0,39,0.00,,,0.00,561.0,WUHU216DAVISVP2,2013-06-10 22:41:00,
2013-06-10 15:46:00,80.2,49.9,29.83,NW,306,4.0,10.0,35,0.00,,,0.00,659.0,WUHU216DAVISVP2,2013-06-10 22:46:00,
2013-06-10 15:50:00,80.8,49.8,29.83,NW,315,5.0,10.0,34,0.00,,,0.00,705.0,WUHU216DAVISVP2,2013-06-10 22:50:00,
2013-06-10 15:51:00,81.2,48.4,29.83,West,281,4.0,10.0,32,0.00,,,0.00,751.0,WUHU216DAVISVP2,2013-06-10 22:51:00,
2013-06-10 15:55:00,81.9,50.6,29.83,WNW,292,2.0,9.0,34,0.00,,,0.00,715.0,WUHU216DAVISVP2,2013-06-10 22:55:00,
2013-06-10 16:00:00,82.2,52.5,29.83,NW,321,8.0,9.0,36,0.00,,,0.00,684.0,WUHU216DAVISVP2,2013-06-10 23:00:00,
2013-06-10 16:05:00,82.9,47.2,29.83,NNW,342,4.0,9.0,29,0.00,,,0.00,670.0,WUHU216DAVISVP2,2013-06-10 23:05:00,
2013-06-10 16:10:00,83.0,50.0,29.83,NW,308,8.0,11.0,32,0.00,,,0.00,656.0,WUHU216DAVISVP2,2013-06-10 23:10:00,
2013-06-10 16:15:00,82.7,48.0,29.83,WNW,284,5.0,11.0,30,0.00,,,0.00,650.0,WUHU216DAVISVP2,2013-06-10 23:15:00,
2013-06-10 16:20:00,83.1,45.5,29.83,WNW,295,7.0,11.0,27,0.00,,,0.00,504.0,WUHU216DAVISVP2,2013-06-10 23:20:00,
2013-06-10 16:25:00,83.3,49.4,29.83,WNW,285,3.0,11.0,31,0.00,,,0.00,656.0,WUHU216DAVISVP2,2013-06-10 23:25:00,
2013-06-10 16:30:00,83.4,51.1,29.83,WNW,292,7.0,11.0,33,0.00,,,0.00,631.0,WUHU216DAVISVP2,2013-06-10 23:30:00,
2013-06-10 16:35:00,83.0,53.2,29.83,NW,304,7.0,10.0,36,0.00,,,0.00,582.0,WUHU216DAVISVP2,2013-06-10 23:35:00,
2013-06-10 16:40:00,83.1,51.7,29.83,WNW,284,5.0,12.0,34,0.00,,,0.00,418.0,WUHU216DAVISVP2,2013-06-10 23:40:00,
2013-06-10 16:45:00,83.4,50.3,29.83,WNW,294,6.0,12.0,32,0.00,,,0.00,508.0,WUHU216DAVISVP2,2013-06-10 23:45:00,
2013-06-10 16:50:00,83.5,49.5,29.83,NW,319,6.0,12.0,31,0.00,,,0.00,548.0,WUHU216DAVISVP2,2013-06-10 23:50:00,
2013-06-10 16:55:00,83.2,51.8,29.83,WNW,288,9.0,12.0,34,0.00,,,0.00,533.0,WUHU216DAVISVP2,2013-06-10 23:55:00,
2013-06-10 17:00:00,83.0,52.4,29.83,NNW,339,9.0,12.0,35,0.00,,,0.00,520.0,WUHU216DAVISVP2,2013-06-11 00:00:00,
2013-06-10 17:05:00,83.3,49.4,29.83,WNW,302,4.0,13.0,31,0.00,,,0.00,504.0,WUHU216DAVISVP2,2013-06-11 00:05:00,
2013-06-10 17:10:00,83.8,50.7,29.83,WNW,296,5.0,13.0,32,0.00,,,0.00,489.0,WUHU216DAVISVP2,2013-06-11 00:10:00,
2013-06-10 17:15:00,84.3,50.2,29.83,NW,306,5.0,13.0,31,0.00,,,0.00,478.0,WUHU216DAVISVP2,2013-06-11 00:15:00,
2013-06-10 17:20:00,84.7,47.9,29.82,NW,325,6.0,13.0,28,0.00,,,0.00,462.0,WUHU216DAVISVP2,2013-06-11 00:20:00,
2013-06-10 17:25:00,84.8,48.9,29.82,NW,309,3.0,12.0,29,0.00,,,0.00,455.0,WUHU216DAVISVP2,2013-06-11 00:25:00,
2013-06-10 17:30:00,85.3,46.4,29.82,NNW,347,4.0,12.0,26,0.00,,,0.00,431.0,WUHU216DAVISVP2,2013-06-11 00:30:00,
2013-06-10 17:35:00,85.4,46.5,29.82,NNW,348,6.0,12.0,26,0.00,,,0.00,417.0,WUHU216DAVISVP2,2013-06-11 00:35:00,
2013-06-10 17:40:00,85.1,41.9,29.82,North,351,9.0,14.0,22,0.00,,,0.00,397.0,WUHU216DAVISVP2,2013-06-11 00:40:00,
2013-06-10 17:45:00,85.2,42.0,29.81,NW,309,6.0,14.0,22,0.00,,,0.00,383.0,WUHU216DAVISVP2,2013-06-11 00:45:00,
2013-06-10 17:50:00,85.3,42.1,29.81,NNW,344,7.0,14.0,22,0.00,,,0.00,371.0,WUHU216DAVISVP2,2013-06-11 00:50:00,
2013-06-10 17:55:00,85.5,44.5,29.81,WNW,297,9.0,14.0,24,0.00,,,0.00,355.0,WUHU216DAVISVP2,2013-06-11 00:55:00,
2013-06-10 18:00:00,85.4,44.4,29.81,North,355,3.0,11.0,24,0.00,,,0.00,341.0,WUHU216DAVISVP2,2013-06-11 01:00:00,
2013-06-10 18:05:00,85.2,46.3,29.81,NW,309,6.0,11.0,26,0.00,,,0.00,323.0,WUHU216DAVISVP2,2013-06-11 01:05:00,
2013-06-10 18:10:00,84.7,45.9,29.81,NW,320,3.0,13.0,26,0.00,,,0.00,308.0,WUHU216DAVISVP2,2013-06-11 01:10:00,
2013-06-10 18:15:00,84.5,47.7,29.81,NW,319,7.0,14.0,28,0.00,,,0.00,288.0,WUHU216DAVISVP2,2013-06-11 01:15:00,
2013-06-10 18:20:00,84.4,46.7,29.81,NNW,339,5.0,14.0,27,0.00,,,0.00,274.0,WUHU216DAVISVP2,2013-06-11 01:20:00,
2013-06-10 18:25:00,84.5,45.8,29.81,NW,309,6.0,14.0,26,0.00,,,0.00,258.0,WUHU216DAVISVP2,2013-06-11 01:25:00,
2013-06-10 18:30:00,83.9,45.2,29.82,NW,319,10.0,14.0,26,0.00,,,0.00,248.0,WUHU216DAVISVP2,2013-06-11 01:30:00,
2013-06-10 18:35:00,83.4,44.8,29.81,NW,308,5.0,14.0,26,0.00,,,0.00,234.0,WUHU216DAVISVP2,2013-06-11 01:35:00,
2013-06-10 18:40:00,83.2,45.6,29.81,West,280,7.0,14.0,27,0.00,,,0.00,218.0,WUHU216DAVISVP2,2013-06-11 01:40:00,
2013-06-10 18:45:00,82.9,47.2,29.81,NW,306,4.0,14.0,29,0.00,,,0.00,199.0,WUHU216DAVISVP2,2013-06-11 01:45:00,
2013-06-10 18:50:00,82.4,48.6,29.82,West,281,9.0,14.0,31,0.00,,,0.00,178.0,WUHU216DAVISVP2,2013-06-11 01:50:00,
2013-06-10 18:55:00,82.2,50.1,29.82,WNW,287,6.0,12.0,33,0.00,,,0.00,165.0,WUHU216DAVISVP2,2013-06-11 01:55:00,
2013-06-10 19:00:00,82.1,50.0,29.82,NW,308,6.0,12.0,33,0.00,,,0.00,142.0,WUHU216DAVISVP2,2013-06-11 02:00:00,
2013-06-10 19:05:00,82.0,50.1,29.82,NW,307,6.0,11.0,33,0.00,,,0.00,139.0,WUHU216DAVISVP2,2013-06-11 02:05:00,
2013-06-10 19:10:00,82.0,49.9,29.81,WNW,290,7.0,10.0,33,0.00,,,0.00,120.0,WUHU216DAVISVP2,2013-06-11 02:10:00,
2013-06-10 19:15:00,81.8,49.7,29.81,WNW,290,9.0,12.0,33,0.00,,,0.00,70.0,WUHU216DAVISVP2,2013-06-11 02:15:00,
2013-06-10 19:20:00,81.5,50.4,29.82,WNW,290,5.0,12.0,34,0.00,,,0.00,40.0,WUHU216DAVISVP2,2013-06-11 02:20:00,
2013-06-10 19:25:00,81.2,50.0,29.82,WNW,288,6.0,12.0,34,0.00,,,0.00,33.0,WUHU216DAVISVP2,2013-06-11 02:25:00,
2013-06-10 19:30:00,80.9,49.8,29.82,WNW,300,5.0,12.0,34,0.00,,,0.00,26.0,WUHU216DAVISVP2,2013-06-11 02:30:00,
2013-06-10 19:35:00,80.6,50.3,29.81,WNW,292,4.0,10.0,35,0.00,,,0.00,23.0,WUHU216DAVISVP2,2013-06-11 02:35:00,
2013-06-10 19:40:00,80.5,50.3,29.82,West,281,6.0,8.0,35,0.00,,,0.00,19.0,WUHU216DAVISVP2,2013-06-11 02:40:00,
2013-06-10 19:45:00,80.3,50.8,29.81,WNW,286,3.0,8.0,36,0.00,,,0.00,25.0,WUHU216DAVISVP2,2013-06-11 02:45:00,
2013-06-10 19:50:00,80.0,51.3,29.82,WNW,298,2.0,7.0,37,0.00,,,0.00,19.0,WUHU216DAVISVP2,2013-06-11 02:50:00,
2013-06-10 19:55:00,79.8,51.9,29.82,WNW,288,2.0,7.0,38,0.00,,,0.00,11.0,WUHU216DAVISVP2,2013-06-11 02:55:00,
2013-06-10 20:00:00,79.8,51.8,29.82,WNW,288,2.0,7.0,38,0.00,,,0.00,7.0,WUHU216DAVISVP2,2013-06-11 03:00:00,
2013-06-10 20:05:00,79.6,51.7,29.81,WNW,288,3.0,5.0,38,0.00,,,0.00,5.0,WUHU216DAVISVP2,2013-06-11 03:05:00,
2013-06-10 20:10:00,79.4,51.5,29.81,WNW,288,2.0,5.0,38,0.00,,,0.00,0.0,WUHU216DAVISVP2,2013-06-11 03:10:00,
2013-06-10 20:15:00,79.2,52.0,29.82,WNW,288,2.0,5.0,39,0.00,,,0.00,0.0,WUHU216DAVISVP2,2013-06-11 03:15:00,
2013-06-10 20:20:00,79.2,52.0,29.82,WNW,288,3.0,5.0,39,0.00,,,0.00,0.0,WUHU216DAVISVP2,2013-06-11 03:20:00,
2013-06-10 20:25:00,78.8,52.4,29.82,WNW,289,3.0,7.0,40,0.00,,,0.00,0.0,WUHU216DAVISVP2,2013-06-11 03:25:00,
2013-06-10 20:30:00,78.4,52.7,29.82,WNW,292,3.0,7.0,41,0.00,,,0.00,0.0,WUHU216DAVISVP2,2013-06-11 03:30:00,
2013-06-10 20:35:00,78.0,53.0,29.83,WNW,284,2.0,7.0,42,0.00,,,0.00,0.0,WUHU216DAVISVP2,2013-06-11 03:35:00,
2013-06-10 20:40:00,77.6,53.3,29.83,West,262,6.0,6.0,43,0.00,,,0.00,0.0,WUHU216DAVISVP2,2013-06-11 03:40:00,
2013-06-10 20:45:00,77.3,53.7,29.83,WNW,297,4.0,6.0,44,0.00,,,0.00,0.0,WUHU216DAVISVP2,2013-06-11 03:45:00,
2013-06-10 20:50:00,77.1,53.5,29.83,WNW,291,3.0,6.0,44,0.00,,,0.00,0.0,WUHU216DAVISVP2,2013-06-11 03:50:00,
2013-06-10 20:55:00,77.0,54.0,29.83,WNW,297,2.0,6.0,45,0.00,,,0.00,0.0,WUHU216DAVISVP2,2013-06-11 03:55:00,
2013-06-10 21:00:00,76.9,53.9,29.83,WNW,294,3.0,5.0,45,0.00,,,0.00,0.0,WUHU216DAVISVP2,2013-06-11 04:00:00,
2013-06-10 21:01:00,76.9,53.9,29.83,WNW,294,3.0,5.0,45,0.00,,,0.00,0.0,WUHU216DAVISVP2,2013-06-11 04:01:00,
2013-06-10 21:02:00,76.8,53.9,29.84,WNW,288,4.0,6.0,45,0.00,,,0.00,0.0,WUHU216DAVISVP2,2013-06-11 04:02:00,
2013-06-10 21:07:00,76.6,54.3,29.84,WNW,294,2.0,6.0,46,0.00,,,0.00,0.0,WUHU216DAVISVP2,2013-06-11 04:07:00,
2013-06-10 21:10:00,76.5,54.2,29.84,WNW,293,3.0,6.0,46,0.00,,,0.00,0.0,WUHU216DAVISVP2,2013-06-11 04:10:00,
2013-06-10 21:12:00,76.4,54.7,29.84,West,281,2.0,6.0,47,0.00,,,0.00,0.0,WUHU216DAVISVP2,2013-06-11 04:12:00,
2013-06-10 21:17:00,76.2,55.1,29.84,NW,309,3.0,6.0,48,0.00,,,0.00,0.0,WUHU216DAVISVP2,2013-06-11 04:17:00,
2013-06-10 21:20:00,76.1,55.0,29.84,West,270,3.0,6.0,48,0.00,,,0.00,0.0,WUHU216DAVISVP2,2013-06-11 04:20:00,
2013-06-10 21:22:00,75.9,55.4,29.84,NW,304,5.0,7.0,49,0.00,,,0.00,0.0,WUHU216DAVISVP2,2013-06-11 04:22:00,
2013-06-10 21:27:00,75.6,55.7,29.85,WNW,297,4.0,8.0,50,0.00,,,0.00,0.0,WUHU216DAVISVP2,2013-06-11 04:27:00,
2013-06-10 21:30:00,75.5,55.6,29.85,WNW,293,5.0,8.0,50,0.00,,,0.00,0.0,WUHU216DAVISVP2,2013-06-11 04:30:00,
2013-06-10 21:32:00,75.3,56.0,29.85,WNW,294,4.0,8.0,51,0.00,,,0.00,0.0,WUHU216DAVISVP2,2013-06-11 04:32:00,
2013-06-10 21:37:00,74.9,56.2,29.85,WNW,289,3.0,8.0,52,0.00,,,0.00,0.0,WUHU216DAVISVP2,2013-06-11 04:37:00,
2013-06-10 21:40:00,74.8,56.0,29.85,WNW,293,4.0,8.0,52,0.00,,,0.00,0.0,WUHU216DAVISVP2,2013-06-11 04:40:00,
2013-06-10 21:42:00,74.6,56.5,29.85,WNW,294,6.0,8.0,53,0.00,,,0.00,0.0,WUHU216DAVISVP2,2013-06-11 04:42:00,
2013-06-10 21:47:00,74.3,56.1,29.86,WNW,286,5.0,7.0,53,0.00,,,0.00,0.0,WUHU216DAVISVP2,2013-06-11 04:47:00,
2013-06-10 21:50:00,74.1,55.9,29.86,WNW,293,4.0,7.0,53,0.00,,,0.00,0.0,WUHU216DAVISVP2,2013-06-11 04:50:00,
2013-06-10 21:52:00,74.0,56.4,29.85,WNW,303,1.0,7.0,54,0.00,,,0.00,0.0,WUHU216DAVISVP2,2013-06-11 04:52:00,
2013-06-10 21:57:00,73.8,56.3,29.86,WNW,296,2.0,7.0,54,0.00,,,0.00,0.0,WUHU216DAVISVP2,2013-06-11 04:57:00,
2013-06-10 22:00:00,73.7,56.0,29.86,WNW,293,3.0,7.0,54,0.00,,,0.00,0.0,WUHU216DAVISVP2,2013-06-11 05:00:00,
2013-06-10 22:02:00,73.6,56.1,29.86,WNW,299,3.0,7.0,54,0.00,,,0.00,0.0,WUHU216DAVISVP2,2013-06-11 05:02:00,
2013-06-10 22:07:00,73.4,56.4,29.86,NW,313,2.0,7.0,55,0.00,,,0.00,0.0,WUHU216DAVISVP2,2013-06-11 05:07:00,
2013-06-10 22:10:00,73.4,55.7,29.86,WNW,293,3.0,6.0,54,0.00,,,0.00,0.0,WUHU216DAVISVP2,2013-06-11 05:10:00,
2013-06-10 22:12:00,73.3,56.2,29.86,WNW,303,3.0,6.0,55,0.00,,,0.00,0.0,WUHU216DAVISVP2,2013-06-11 05:12:00,
2013-06-10 22:17:00,73.1,56.0,29.86,WNW,302,2.0,6.0,55,0.00,,,0.00,0.0,WUHU216DAVISVP2,2013-06-11 05:17:00,
2013-06-10 22:20:00,73.1,56.0,29.86,WNW,293,3.0,6.0,55,0.00,,,0.00,0.0,WUHU216DAVISVP2,2013-06-11 05:20:00,
2013-06-10 22:22:00,72.9,55.9,29.87,WNW,296,4.0,6.0,55,0.00,,,0.00,0.0,WUHU216DAVISVP2,2013-06-11 05:22:00,
2013-06-10 22:27:00,72.6,56.2,29.86,WNW,298,3.0,6.0,56,0.00,,,0.00,0.0,WUHU216DAVISVP2,2013-06-11 05:27:00,
2013-06-10 22:30:00,72.5,55.9,29.86,WNW,293,3.0,6.0,56,0.00,,,0.00,0.0,WUHU216DAVISVP2,2013-06-11 05:30:00,
2013-06-10 22:32:00,72.3,56.2,29.86,WNW,298,4.0,6.0,57,0.00,,,0.00,0.0,WUHU216DAVISVP2,2013-06-11 05:32:00,
2013-06-10 22:37:00,72.0,55.9,29.87,WNW,298,4.0,6.0,57,0.00,,,0.00,0.0,WUHU216DAVISVP2,2013-06-11 05:37:00,
2013-06-10 22:40:00,71.9,55.8,29.87,WNW,293,3.0,5.0,57,0.00,,,0.00,0.0,WUHU216DAVISVP2,2013-06-11 05:40:00,
2013-06-10 22:42:00,71.7,55.7,29.87,WNW,287,4.0,5.0,57,0.00,,,0.00,0.0,WUHU216DAVISVP2,2013-06-11 05:42:00,
2013-06-10 22:47:00,71.4,55.9,29.86,WNW,290,2.0,5.0,58,0.00,,,0.00,0.0,WUHU216DAVISVP2,2013-06-11 05:47:00,
2013-06-10 22:50:00,71.3,56.2,29.86,WNW,293,3.0,5.0,59,0.00,,,0.00,0.0,WUHU216DAVISVP2,2013-06-11 05:50:00,
2013-06-10 22:52:00,71.2,56.3,29.86,WNW,290,1.0,5.0,59,0.00,,,0.00,0.0,WUHU216DAVISVP2,2013-06-11 05:52:00,
2013-06-10 22:57:00,71.0,55.9,29.86,WNW,290,1.0,5.0,59,0.00,,,0.00,0.0,WUHU216DAVISVP2,2013-06-11 05:57:00,
2013-06-10 23:00:00,71.0,55.9,29.86,WNW,293,2.0,5.0,59,0.00,,,0.00,0.0,WUHU216DAVISVP2,2013-06-11 06:00:00,
2013-06-10 23:02:00,70.9,56.0,29.86,WNW,290,1.0,5.0,59,0.00,,,0.00,0.0,WUHU216DAVISVP2,2013-06-11 06:02:00,
2013-06-10 23:07:00,70.7,55.7,29.86,WNW,290,0.0,5.0,59,0.00,,,0.00,0.0,WUHU216DAVISVP2,2013-06-11 06:07:00,
2013-06-10 23:10:00,70.7,56.1,29.86,WNW,293,1.0,5.0,60,0.00,,,0.00,0.0,WUHU216DAVISVP2,2013-06-11 06:10:00,
2013-06-10 23:12:00,70.6,56.0,29.85,WNW,290,0.0,4.0,60,0.00,,,0.00,0.0,WUHU216DAVISVP2,2013-06-11 06:12:00,
2013-06-10 23:17:00,70.5,55.9,29.85,WNW,290,0.0,4.0,60,0.00,,,0.00,0.0,WUHU216DAVISVP2,2013-06-11 06:17:00,
2013-06-10 23:20:00,70.4,55.8,29.85,WNW,293,1.0,4.0,60,0.00,,,0.00,0.0,WUHU216DAVISVP2,2013-06-11 06:20:00,
2013-06-10 23:22:00,70.4,55.8,29.85,WNW,290,1.0,4.0,60,0.00,,,0.00,0.0,WUHU216DAVISVP2,2013-06-11 06:22:00,
2013-06-10 23:27:00,70.3,56.4,29.85,WNW,290,0.0,3.0,61,0.00,,,0.00,0.0,WUHU216DAVISVP2,2013-06-11 06:27:00,
2013-06-10 23:30:00,70.3,56.2,29.85,WNW,293,1.0,3.0,61,0.00,,,0.00,0.0,WUHU216DAVISVP2,2013-06-11 06:30:00,
2013-06-10 23:32:00,70.3,56.4,29.85,WNW,290,1.0,3.0,61,0.00,,,0.00,0.0,WUHU216DAVISVP2,2013-06-11 06:32:00,
2013-06-10 23:37:00,70.2,56.1,29.85,WNW,290,0.0,3.0,61,0.00,,,0.00,0.0,WUHU216DAVISVP2,2013-06-11 06:37:00,
2013-06-10 23:40:00,70.1,56.0,29.85,WNW,293,0.0,3.0,61,0.00,,,0.00,0.0,WUHU216DAVISVP2,2013-06-11 06:40:00,
2013-06-10 23:42:00,70.0,56.4,29.85,WNW,290,0.0,3.0,62,0.00,,,0.00,0.0,WUHU216DAVISVP2,2013-06-11 06:42:00,
2013-06-10 23:47:00,69.7,56.5,29.85,WNW,290,0.0,2.0,63,0.00,,,0.00,0.0,WUHU216DAVISVP2,2013-06-11 06:47:00,
2013-06-10 23:50:00,69.6,56.4,29.85,North,0,0.0,2.0,63,0.00,,,0.00,0.0,WUHU216DAVISVP2,2013-06-11 06:50:00,
2013-06-10 23:52:00,69.5,56.5,29.85,WNW,290,0.0,1.0,63,0.00,,,0.00,0.0,WUHU216DAVISVP2,2013-06-11 06:52:00,
2013-06-10 23:57:00,69.4,56.4,29.85,WNW,290,0.0,1.0,63,0.00,,,0.00,0.0,WUHU216DAVISVP2,2013-06-11 06:57:00,